Free Severe Weather Alerts by Email and Text Message   

 
Follow iAlert.com on twitter @ialertcom
Search For Active Alerts in Your Area  
  Hi Guest:  [ Sign-up / Services ] [ Login ]

Current weather by "City, St" or "zip code"  

 

Advertise Here

Hazardous Weather Conditions

Dense Fog Advisory issued December 16 at 12:54AM CST until December 16 at 10:00AM CST

Current Conditions: CHICAGO, ILLINOIS

Freezing Fog


28.0 F

Last Updated on Dec 16 2018, 4:52 am CST
Humidity: 88%
Wind Speed: N 0.0 mph
Barometer 30.13 in
Dewpoint: 25.0 F
Visibility: 0.25 mi
Precip: --
Heat Index: NA
Wind Chill: NA
Current conditions at:

Chicago / Wheeling, Pal-Waukee Airport, IL (KPWK)

Lat: 42.12 Lon: -87.904

Local Radar Image active severe weather and emergency alerts image image weather storm and storm spotter reports image weather observation monitoring service image
Local
Radar
Active
Alerts
Storm Reports Weather
Monitoring

Weather Alert Notification Services


ialert severe weather and emergency alerts by text message and email ialert daily weather forecast by email and text message service ialert real-time weather-observation monitoring and alert notification service ialert storm report monitoring alert notification

Observation History for CHICAGO, ILLINOIS


Time Wind
(mph)
Vis
(mi)
Weather Precip (in) Temperature (F) Relative
Humidity
Wind
Chill
(°F)
Heat
Index
(°F)
Pressure
Air Dwpt altimeter
(in)
sea level
(mb)
4:52 am CST N 0.0 0.25 Freezing Fog -- 28.0 25.0 88% NA NA 30.13 1020.8
3:52 am CST N 0.0 0.25 Freezing Fog -- 28.0 25.0 88% NA NA 30.13 1020.8
2:52 am CST NW 5.8 0.25 Freezing Fog -- 30.0 28.0 92% 24 NA 30.14 1021.3
1:52 am CST NW 4.6 0.25 Fog -- 32.0 30.0 92% 27 NA 30.14 1021.2
12:52 am CST NE 3.5 0.25 Fog -- 32.0 30.0 92% NA NA 30.13 1020.6
11:52 pm CST NW 3.5 2.50 Fog/Mist -- 31.0 27.0 85% NA NA 30.14 1021.2
10:52 pm CST NW 5.8 4.00 Fog/Mist -- 29.0 26.1 89% 23 NA 30.15 1021.6
9:52 pm CST NW 4.6 4.00 Fog/Mist -- 30.0 28.0 92% 25 NA 30.15 1021.6
8:52 pm CST N 3.5 6.00 Fog/Mist -- 33.0 28.9 85% NA NA 30.16 1021.9
7:52 pm CST N 3.5 8.00 Fair -- 34.0 30.0 85% NA NA 30.17 1022.4
6:52 pm CST N 5.8 9.00 Fair -- 37.0 30.9 79% 32 NA 30.18 1022.6
5:52 pm CST N 5.8 10.00 Fair -- 37.0 30.0 76% 32 NA 30.18 1022.6
4:52 pm CST N 4.6 10.00 Fair -- 39.0 30.9 73% 36 NA 30.17 1022.4
3:52 pm CST N 10.4 10.00 Fair -- 42.0 30.9 65% 36 NA 30.16 1022.1
2:52 pm CST NE 8.1 10.00 Fair -- 44.0 30.9 60% 39 NA 30.15 1021.5
1:52 pm CST NE 9.2 10.00 Fair -- 45.0 30.9 58% 40 NA 30.14 1021.1
12:52 pm CST NE 8.1 10.00 Fair -- 46.0 30.9 56% 42 NA 30.15 1021.4
11:52 am CST NE 9.2 10.00 Fair -- 45.0 32.0 61% 40 NA 30.16 1022.0
10:52 am CST NE 9.2 10.00 Fair -- 44.0 33.1 65% 39 NA 30.18 1022.5
9:52 am CST NE 10.4 9.00 Fair -- 42.0 33.1 71% 36 NA 30.20 1023.3
8:52 am CST NW 4.6 3.00 Fog/Mist -- 34.0 30.0 85% 30 NA 30.18 1022.7
7:52 am CST NW 5.8 3.00 Fog/Mist -- 28.0 24.1 85% 22 NA 30.19 1023.1
6:52 am CST NW 4.6 6.00 Fog/Mist -- 27.0 23.0 85% 22 NA 30.20 1023.3
5:52 am CST NW 4.6 0.25 Fog/Mist -- 26.0 21.9 84% 20 NA 30.18 1022.6

Regional Weather Observation:


Chicago, Chicago-OHare International Airport, IL (KORD)

Freezing Fog
27.0 F

Chicago/Waukegan Regional Airport, IL (KUGN)

Fog/Mist
23.0 F

Chicago, Chicago Midway Airport, IL (KMDW)

Freezing Fog
31.0 F

Kenosha, Kenosha Regional Airport, WI (KENW)

Freezing Fog
24.0 F

Chicago / West Chicago, Dupage Airport, IL (KDPA)

Freezing Fog
24.0 F

Racine, Batten International Airport, WI (KRAC)

Fog/Mist
25.0 F

Advertise Here

Advertise Here